Miscellaneous Local Product
Issued by NWS North Platte, NE

Home | Current Version | Previous Version | Graphics & Text | Print | Product List | Glossary On
Versions: 1 2 3 4 5 6 7 8 9 10 11 12 13 14 15 16 17 18 19 20 21 22 23 24 25 26 27 28 29 30 31 32 33 34 35 36 37 38 39 40 41 42 43 44 45 46 47 48 49 50
000
AXUS43 KLBF 312210
MISLBF


WESTERN AND NORTH CENTRAL NEBRASKA HOURLY WEATHER ROUNDUP
NATIONAL WEATHER SERVICE NORTH PLATTE NE
500 PM CDT FRI JUL 31 2015

***STATIONS NOT REPORTING VARIABLES SUCH AS SKY/WEATHER OR
PRESSURE ARE PROVIDED BY THE NEBRASKA DEPARTMENT OF
ROADS...RAWS...AND APRS NETWORKS...AND ARE NOT UNDER
NATIONAL WEATHER SERVICE QUALITY CONTROL***

...OBSERVATIONS IN AND NEAR THE EASTERN PANHANDLE OF NEBRASKA...

CITY           SKY/WX    TMP DP  RH WIND       PRES   REMARKS
PINE RIDGE     SUNNY     92  48  22 MISG      30.13F
CHADRON        MOSUNNY   94  52  24 VRB5      30.11F HX  91
ALLIANCE       MOSUNNY   81  62  52 E14       30.18F
SIDNEY         MOSUNNY   91  45  20 SE13      30.20F
BIG SPRINGS      N/A     92  52  25 E7          N/A
$$

...OBSERVATIONS IN NORTH CENTRAL NEBRASKA...

CITY           SKY/WX    TMP DP  RH WIND       PRES   REMARKS
VALENTINE      SUNNY     95  42  16 N8        30.10F HX  91
THEDFORD       PTSUNNY   92  57  31 SW5       30.14S HX  90
AINSWORTH      MOSUNNY   91  58  33 S8        30.11F
O`NEILL        SUNNY     91  60  35 NE3       30.09F HX  90
ORD            TSTM      76  63  64 E5        30.06F
BROKEN BOW     MOSUNNY   93  61  34 W10       30.10F HX  93
SPRINGVIEW       N/A     93  58  30 MISG        N/A  HX  91
CHAMBERS         N/A     91  62  37 E3          N/A  HX  91
EWING            N/A     90  69  49 NE3         N/A  HX  94
$$

...OBSERVATIONS IN SOUTHWEST NEBRASKA AND FAR NORTHEAST COLORADO...

CITY           SKY/WX    TMP DP  RH WIND       PRES   REMARKS
WRAY           FAIR      96  44  16 S3        30.16F HX  92
IMPERIAL       SUNNY     94  47  20 NE7       30.14F HX  90
OGALLALA       SUNNY     89  58  34 SE6       30.15F
NORTH PLATTE   MOSUNNY   92  56  29 S5        30.12F HX  90
MCCOOK         SUNNY     95  56  26 S7        30.10F HX  93
LEXINGTON      SUNNY     93  61  33 SW7       30.10F HX  93
PAXTON           N/A     91  63  39 S5          N/A  HX  92
BRADY            N/A     92  63  38 CALM        N/A  HX  93
CALLAWAY         N/A     87  74  65 S5          N/A  HX  95
$$

...NORTH PLATTE AREA...

CITY           SKY/WX    TMP DP  RH WIND       PRES   REMARKS
AIRPORT        MOSUNNY   92  56  29 S5        30.12F HX  90
DOWNTOWN         N/A     90  58  33 E9G21       N/A
SANDRIDGE        N/A     89  56  32 NE7G18      N/A
HILLCREST        N/A     85  53  33 E24G38      N/A
$$

...SOME WEATHER OBSERVATIONS FROM AROUND THE REGION...

CITY           SKY/WX    TMP DP  RH WIND       PRES   REMARKS
DENVER         PTSUNNY   90  45  21 SE16G22   30.25F
LARAMIE        MOSUNNY   81  45  28 SE16G22   30.36F
CHEYENNE       MOSUNNY   77  52  41 E12       30.32F
SCOTTSBLUFF    MOSUNNY   89  51  27 SW20G26   30.17F
RAPID CITY     SUNNY     87  53  31 NE9       30.15F
PIERRE         SUNNY     92  46  20 N9        30.07F
WINNER         FAIR      92  55  28 E3        30.08F HX  90
SIOUX FALLS    MOSUNNY   86  59  39 N6        30.07F
OMAHA          PTSUNNY   87  75  67 NW5       30.03F HX  96
GRAND ISLAND   PTSUNNY   76  63  64 E13       30.11R
KANSAS CITY    MOSUNNY   87  67  51 W3        30.08F HX  90
WICHITA        MOSUNNY   89  67  47 CALM      30.08F HX  92
HAYS           SUNNY     91  63  38 S8        30.09F HX  92
LIBERAL        MOSUNNY   84  63  48 NE9       30.13F
GOODLAND       MOSUNNY   89  58  34 S12       30.17F
$$



USA.gov is the U.S. government's official web portal to all federal, state and local government web resources and services.